GW0725 Weather Reports


Display with metric or nautical units.
time (UTC)temp
F
wind
direction
speed
MPH
gust
MPH
rain 1hr
in
rain 24hr
in
rain mn
in
humidity
%
barometer
mb
20260505031715 56 179 0.0 1.0 0.00 0.00 0.00 91 1010.6
20260505031205 56 175 0.0 0.0 0.00 0.00 0.00 90 1010.5
20260505030149 56 177 0.0 0.0 0.00 0.00 0.00 88 1010.8
20260505025047 57 173 0.0 1.0 0.00 0.00 0.00 87 1010.6
20260505023446 57 170 0.0 0.0 0.00 0.00 0.00 86 1011.0
20260505023014 57 175 0.0 0.0 0.00 0.00 0.00 86 1010.9
20260505014826 57 191 0.0 1.0 0.00 0.00 0.00 85 1011.0
20260505013725 57 133 1.0 1.0 0.00 0.00 0.00 85 1011.4
20260505012705 57 136 1.0 2.0 0.00 0.00 0.00 85 1011.3
20260505012233 57 91 1.0 2.0 0.00 0.00 0.00 85 1011.2
20260505011135 57 183 0.0 0.0 0.00 0.00 0.00 85 1010.8
20260505010115 57 189 0.0 0.0 0.00 0.00 0.00 85 1010.9
20260505005605 57 198 0.0 0.0 0.00 0.00 0.00 84 1010.9
20260505004548 57 179 1.0 1.0 0.00 0.00 0.00 84 1011.1
20260505004035 57 192 0.0 0.0 0.00 0.00 0.00 84 1011.3
20260505003603 57 229 0.0 0.0 0.00 0.00 0.00 84 1011.2
20260505003015 57 235 0.0 0.0 0.00 0.00 0.00 84 1011.2
20260505002505 57 236 0.0 0.0 0.00 0.00 0.00 84 1011.3
20260505002036 57 226 0.0 0.0 0.00 0.00 0.00 84 1011.3
20260505000938 57 230 0.0 0.0 0.00 0.00 0.00 84 1011.5
20260505000428 57 230 0.0 0.0 0.00 0.00 0.00 84 1011.3
20260504235915 57 214 0.0 0.0 0.00 0.00 0.00 84 1011.6
20260504235405 57 212 0.0 0.0 0.00 0.00 0.00 84 1011.6
20260504234345 57 208 0.0 0.0 0.00 0.00 0.00 84 1011.4
20260504232815 57 214 0.0 0.0 0.00 0.00 0.00 84 1011.4
20260504232305 57 213 0.0 0.0 0.00 0.00 0.00 85 1011.3
20260504224655 56 214 0.0 0.0 0.00 0.00 0.00 86 1011.8
20260504224145 56 214 0.0 0.0 0.00 0.00 0.00 86 1011.9
20260504223125 56 214 0.0 0.0 0.00 0.00 0.00 86 1011.8
20260504222105 57 214 0.0 0.0 0.00 0.00 0.00 85 1012.2
20260504221558 57 215 0.0 0.0 0.00 0.00 0.00 85 1012.1
20260504221045 57 213 0.0 0.0 0.00 0.00 0.00 84 1012.0
20260504220700 57 212 0.0 0.0 0.00 0.00 0.00 84 1011.9
20260504215553 57 220 0.0 0.0 0.00 0.00 0.00 83 1011.9
20260504215043 58 220 0.0 0.0 0.00 0.00 0.00 83 1012.1
20260504214455 58 220 0.0 0.0 0.00 0.00 0.00 82 1012.1
20260504212457 59 204 0.0 0.0 0.00 0.00 0.00 79 1012.1
20260504211905 59 204 0.0 0.0 0.00 0.00 0.00 79 1012.2
20260504211433 60 218 0.0 0.0 0.00 0.00 0.00 78 1012.2
20260504210923 60 218 0.0 1.0 0.00 0.00 0.00 78 1012.3
20260504210334 60 218 0.0 1.0 0.00 0.00 0.00 77 1012.4
20260504204805 61 218 0.0 0.0 0.00 0.00 0.00 76 1012.2
20260504203234 61 224 0.0 0.0 0.00 0.00 0.00 75 1012.3
20260504202252 61 207 0.0 0.0 0.00 0.00 0.00 74 1012.2
20260504201317 62 217 0.0 0.0 0.00 0.00 0.00 74 1012.1
20260504195627 62 215 0.0 0.0 0.00 0.00 0.00 73 1011.8
20260504195114 62 215 0.0 0.0 0.00 0.00 0.00 73 1012.1
20260504194604 63 215 0.0 0.0 0.00 0.00 0.00 72 1011.9
20260504194133 63 201 0.0 0.0 0.00 0.00 0.00 72 1012.1
20260504193034 64 216 0.0 0.0 0.00 0.00 0.00 71 1012.3
20260504192524 64 202 0.0 0.0 0.00 0.00 0.00 71 1012.0
20260504190957 65 202 0.0 0.0 0.00 0.00 0.00 70 1011.9
20260504190444 65 202 0.0 0.0 0.00 0.00 0.00 69 1012.0
20260504184404 66 202 0.0 0.0 0.00 0.00 0.00 67 1011.8
20260504183854 66 202 0.0 0.0 0.00 0.00 0.00 68 1012.2
20260504182834 67 202 0.0 0.0 0.00 0.00 0.00 67 1011.8
20260504182324 67 202 0.0 0.0 0.00 0.00 0.00 67 1012.0
20260504181345 67 201 0.0 0.0 0.00 0.00 0.00 65 1011.9
20260504180832 68 202 0.0 0.0 0.00 0.00 0.00 64 1011.8
20260504180244 68 201 0.0 0.0 0.00 0.00 0.00 63 1011.8
20260504175734 68 214 0.0 1.0 0.00 0.00 0.00 62 1011.7
20260504175224 68 170 0.0 0.0 0.00 0.00 0.00 62 1011.7
20260504173222 69 192 0.0 2.0 0.00 0.00 0.00 59 1011.4
20260504172712 69 199 0.0 1.0 0.00 0.00 0.00 59 1011.6
20260504171104 70 164 0.0 1.0 0.00 0.00 0.00 60 1011.7
20260504170717 70 118 1.0 2.0 0.00 0.00 0.00 60 1011.4
20260504160354 72 180 1.0 3.0 0.00 0.00 0.00 58 1011.6
20260504150648 71 194 0.0 2.0 0.00 0.00 0.00 58 1011.8
20260504140511 73 56 1.0 2.0 0.00 0.00 0.00 53 1012.2
20260504130746 72 159 0.0 3.0 0.00 0.00 0.00 59 1012.4
20260504130233 71 191 0.0 3.0 0.00 0.00 0.00 61 1012.4
20260504100143 69 203 1.0 3.0 0.00 0.00 0.00 64 1012.8
20260504081824 69 217 1.0 4.0 0.00 0.00 0.00 66 1012.8
20260504050712 56 165 0.0 0.0 0.00 0.00 0.00 88 1011.5
20260504050202 56 165 0.0 0.0 0.00 0.00 0.00 88 1011.5
20260504045145 56 165 0.0 0.0 0.00 0.00 0.00 88 1011.5
20260504044122 57 165 0.0 0.0 0.00 0.00 0.00 87 1011.6
20260504043102 56 165 0.0 0.0 0.00 0.00 0.00 88 1011.3
20260504041532 56 165 0.0 0.0 0.00 0.00 0.00 89 1011.1
20260504035934 57 165 0.0 0.0 0.00 0.00 0.00 88 1011.0
20260504033419 58 165 0.0 0.0 0.00 0.00 0.00 84 1011.2
20260504032831 59 165 0.0 0.0 0.00 0.00 0.00 82 1011.1
20260504032444 60 165 0.0 0.0 0.00 0.00 0.00 82 1011.3